Regional Weather Roundup
Issued by NWS Sioux Falls, SD

Home | Current Version | Previous Version | Graphics & Text | Print | Product List | Glossary Off
Versions: 1 2 3 4 5 6 7 8 9 10 11 12 13 14 15 16 17 18 19 20 21 22 23 24 25 26 27 28 29 30 31 32 33 34 35 36 37 38 39 40 41 42 43 44 45 46 47 48 49 50

000
ASUS43 KFSD 261802
RWRFSD

WEATHER ROUNDUP FOR SE SOUTH DAKOTA/SW MINNESOTA/NW IOWA
NATIONAL WEATHER SERVICE SIOUX FALLS SD
1200 PM CST SUN FEB 26 2017

NOTE: "FAIR" INDICATES FEW OR NO CLOUDS BELOW 12,000 FEET WITH NO
SIGNIFICANT WEATHER AND OR OBSTRUCTIONS TO VISIBILITY.


SDZ038>040-050-052>070-261900-
SOUTHEAST SOUTH DAKOTA

CITY           SKY/WX    TMP DP  RH WIND       PRES   REMARKS
BROOKINGS      SUNNY     34  19  54 NW8       29.82R WCI  27
CHAMBERLAIN    SUNNY     39  20  46 SW10      29.84F
6HR MIN TEMP:  21; 6HR MAX TEMP:  39;

HURON          MOSUNNY   31  21  66 VRB3      29.86R
6HR MIN TEMP:  19; 6HR MAX TEMP:  32;

MADISON        FAIR      32  23  69 W9        29.83S WCI  24
MITCHELL       MOSUNNY   36  24  62 SW8       29.87S
6HR MIN TEMP:  22; 6HR MAX TEMP:  36;

SIOUX FALLS    SUNNY     32  25  75 SW6       29.87R WCI  26
6HR MIN TEMP:  15; 6HR MAX TEMP:  32;

WINNER         FAIR      35  18  49 W12       29.85S WCI  27
YANKTON        SUNNY     30  19  64 W10       29.90S WCI  21
$$

MNZ071-072-080-081-089-090-097-098-261900-
SOUTHWEST MINNESOTA

CITY           SKY/WX    TMP DP  RH WIND       PRES   REMARKS
FAIRMONT       SUNNY     31  24  75 W12       29.86R WCI  22
JACKSON        SUNNY     32  25  74 W10       29.85R WCI  24
LUVERNE        SUNNY     32  25  74 W7        29.87R WCI  26
MARSHALL       MOSUNNY   32  22  66 N14       29.85R WCI  22
6HR MIN TEMP:  24; 6HR MAX TEMP:  33;

MONTEVIDEO     SUNNY     28  19  69 N15       29.87R WCI  17
PIPESTONE      SUNNY     36  19  51 NW9       29.82S
REDWOOD FALLS  MOSUNNY   34  19  54 W15       29.84R WCI  24
TRACY          MOSUNNY   35  26  68 NW7       29.84R WCI  30
WINDOM         SUNNY     36  25  64 W13       29.84R
WORTHINGTON    SUNNY     33  25  72 W10       29.85R WCI  25
$$

IAZ001>003-012>014-020>022-031-032-NEZ013-014-SDZ071-261900-
NORTHWEST IOWA

CITY           SKY/WX    TMP DP  RH WIND       PRES   REMARKS
CHEROKEE       SUNNY     28  20  71 SW7       29.91R WCI  21
DENISON        SUNNY     30  18  59 W9        29.91S WCI  22
ESTHERVILLE    SUNNY     30  24  78 W12       29.85R WCI  20
LE MARS        SUNNY     30  21  69 W7        29.93R WCI  23
SHELDON        SUNNY     28  28 100 W8        29.87R WCI  20
SIOUX CITY     SUNNY     31  19  61 W8        29.93S WCI  23
6HR MIN TEMP:  13; 6HR MAX TEMP:  31;

SPENCER        SUNNY     30  23  75 W10       29.88R WCI  21
6HR MIN TEMP:  11; 6HR MAX TEMP:  30;

STORM LAKE     SUNNY     27  19  74 W15       29.88S WCI  15
$$

ABBREVIATIONS USED IN REMARKS
   TC - TEMPERATURE IN CELSIUS
  WCI - WIND CHILL INDEX
   HX - HEAT INDEX
  VSB - VISIBILITY




USA.gov is the U.S. government's official web portal to all federal, state and local government web resources and services.